Location: Excel
(51.3833°N, 110.5667°W)
Time: 19:56:11
(UTC+00:00)

Envisat - Pass Details

Date: 07 December 2021
Orbit: 764 x 766 km, 98.2° (Epoch: 26 January)

Event Time Altitude Azimuth Distance (km) Brightness Sun altitude
Rises 11:59:17 0° 18° (NNE) 3,247 6.5 -29.0°
Reaches altitude 10° 12:01:42 10° 25° (NNE) 2,316 5.7 -28.6°
Maximum altitude 12:06:36 45° 98° (E) 1,040 4.0 -27.9°
Drops below altitude 10° 12:11:27 10° 171° (S) 2,298 5.6 -27.1°
Sets 12:13:50 0° 178° (S) 3,219 6.3 -26.8°
